When you browse on this site, cookies collect data to enhance your experience and personalize the content and advertising you see.
Visit our Privacy Policy to learn more. By continuing to use the site, you agree to this use of cookies and data.
  • In Switzerland
  • List of Countries
  • For 7 days
  • Water Temperature
  • Weather Map
  • Weather Widgets
  • user-avatar
    Login

    Hourly Weather Tampere

    Today, 2 June, Tuesday

    Time Temperature Precipitation Wind Pressure Humidity
    00:00 +12°C° 0 mm 2 mps 758 mmHg 82%
    01:00 +10°C° 0 mm 2 mps 758 mmHg 83%
    02:00 +11°C° 0 mm 1 mps 759 mmHg 85%
    03:00 +11°C° 0 mm 1 mps 758 mmHg 82%
    04:00 +11°C° 0 mm 1 mps 758 mmHg 80%
    05:00 +11°C° 0 mm 1 mps 758 mmHg 77%
    06:00 +13°C° 0 mm 1 mps 758 mmHg 69%
    07:00 +14°C° 0 mm 1 mps 758 mmHg 61%
    08:00 +16°C° 0 mm 1 mps 758 mmHg 52%
    09:00 +18°C° 0 mm 1 mps 758 mmHg 49%
    10:00 +19°C° 0 mm 1 mps 757 mmHg 46%
    11:00 +20°C° 0 mm 1 mps 757 mmHg 43%
    12:00 +20°C° 0 mm 2 mps 757 mmHg 41%
    13:00 +20°C° 0 mm 2 mps 757 mmHg 39%
    14:00 +21°C° 0 mm 2 mps 756 mmHg 38%
    15:00 +20°C° 0 mm 2 mps 755 mmHg 38%
    16:00 +20°C° 0 mm 2 mps 755 mmHg 39%
    17:00 +20°C° 0 mm 2 mps 754 mmHg 39%
    18:00 +19°C° 0 mm 2 mps 754 mmHg 44%
    19:00 +18°C° 0 mm 2 mps 754 mmHg 49%
    20:00 +17°C° 0 mm 2 mps 754 mmHg 54%
    21:00 +15°C° 0 mm 2 mps 754 mmHg 59%
    22:00 +13°C° 0 mm 2 mps 754 mmHg 65%
    23:00 +10°C° 0 mm 2 mps 754 mmHg 70%

    Tomorrow, 3 June, Wednesday

    Time Temperature Precipitation Wind Pressure Humidity
    00:00 +10°C° 0 mm 1 mps 754 mmHg 73%
    01:00 +10°C° 0 mm 1 mps 754 mmHg 75%
    02:00 +9°C° 0 mm 1 mps 754 mmHg 78%
    03:00 +9°C° 0 mm 1 mps 754 mmHg 76%
    04:00 +10°C° 0 mm 1 mps 753 mmHg 75%
    05:00 +10°C° 0 mm 1 mps 753 mmHg 74%
    06:00 +12°C° 0 mm 1 mps 753 mmHg 65%
    07:00 +13°C° 0 mm 2 mps 753 mmHg 56%
    08:00 +15°C° 0 mm 2 mps 753 mmHg 47%
    09:00 +16°C° 0 mm 2 mps 753 mmHg 43%
    10:00 +17°C° 0 mm 2 mps 752 mmHg 40%
    11:00 +18°C° 0 mm 2 mps 752 mmHg 36%
    12:00 +19°C° 0 mm 2 mps 752 mmHg 35%
    13:00 +19°C° 0 mm 2 mps 751 mmHg 34%
    14:00 +20°C° 0 mm 2 mps 751 mmHg 34%
    15:00 +20°C° 0 mm 2 mps 751 mmHg 35%
    16:00 +20°C° 0 mm 2 mps 750 mmHg 35%
    17:00 +20°C° 0 mm 2 mps 750 mmHg 36%
    18:00 +19°C° 0 mm 2 mps 750 mmHg 42%
    19:00 +17°C° 0 mm 2 mps 750 mmHg 48%
    20:00 +16°C° 0 mm 2 mps 750 mmHg 54%
    21:00 +15°C° 0 mm 1 mps 749 mmHg 60%
    22:00 +13°C° 0 mm 1 mps 749 mmHg 66%
    23:00 +11°C° 0 mm 1 mps 749 mmHg 72%

    Day after tomorrow, 4 June, Thursday

    Time Temperature Precipitation Wind Pressure Humidity
    00:00 +10°C° 0 mm 1 mps 749 mmHg 73%
    01:00 +10°C° 0 mm 1 mps 749 mmHg 74%
    02:00 +9°C° 0 mm 1 mps 749 mmHg 76%
    03:00 +10°C° 0 mm 1 mps 748 mmHg 75%
    04:00 +9°C° 0 mm 2 mps 748 mmHg 74%
    05:00 +10°C° 0 mm 2 mps 747 mmHg 73%
    06:00 +12°C° 0 mm 2 mps 747 mmHg 70%
    07:00 +13°C° 0 mm 2 mps 747 mmHg 67%
    08:00 +13°C° 0 mm 3 mps 747 mmHg 64%
    09:00 +12°C° 0.1 mm 3 mps 746 mmHg 69%
    10:00 +12°C° 0.1 mm 3 mps 746 mmHg 74%
    11:00 +12°C° 0.1 mm 3 mps 746 mmHg 79%
    12:00 +12°C° 0.2 mm 3 mps 745 mmHg 80%
    13:00 +13°C° 0.2 mm 2 mps 745 mmHg 81%
    14:00 +14°C° 0.2 mm 2 mps 745 mmHg 82%
    15:00 +13°C° 0.8 mm 2 mps 744 mmHg 86%
    16:00 +13°C° 0.8 mm 2 mps 744 mmHg 90%
    17:00 +13°C° 0.8 mm 2 mps 743 mmHg 95%
    18:00 +13°C° 0.7 mm 2 mps 743 mmHg 95%
    19:00 +12°C° 0.7 mm 1 mps 743 mmHg 96%
    20:00 +12°C° 0.7 mm 1 mps 743 mmHg 97%
    21:00 +12°C° 0.6 mm 1 mps 742 mmHg 97%
    22:00 +12°C° 0.6 mm 1 mps 742 mmHg 97%
    23:00 +12°C° 0.6 mm 1 mps 742 mmHg 98%

    5 June, Friday

    Time Temperature Precipitation Wind Pressure Humidity
    00:00 +12°C° 0.4 mm 1 mps 742 mmHg 98%
    01:00 +12°C° 0.4 mm 1 mps 742 mmHg 98%
    02:00 +12°C° 0.4 mm 1 mps 742 mmHg 98%
    03:00 +12°C° 0 mm 1 mps 742 mmHg 98%
    04:00 +12°C° 0 mm 1 mps 742 mmHg 97%
    05:00 +12°C° 0 mm 1 mps 742 mmHg 97%
    06:00 +12°C° 0 mm 2 mps 742 mmHg 93%
    07:00 +13°C° 0 mm 2 mps 742 mmHg 90%
    08:00 +14°C° 0 mm 2 mps 742 mmHg 86%
    09:00 +16°C° 0 mm 2 mps 742 mmHg 79%
    10:00 +17°C° 0 mm 2 mps 742 mmHg 71%
    11:00 +19°C° 0 mm 3 mps 742 mmHg 63%
    12:00 +19°C° 0.4 mm 3 mps 742 mmHg 63%
    13:00 +20°C° 0.4 mm 3 mps 742 mmHg 63%
    14:00 +20°C° 0.4 mm 3 mps 742 mmHg 63%
    15:00 +20°C° 0.5 mm 3 mps 742 mmHg 65%
    16:00 +20°C° 0.5 mm 3 mps 742 mmHg 67%
    17:00 +19°C° 0.5 mm 3 mps 742 mmHg 68%
    18:00 +19°C° 0.1 mm 3 mps 742 mmHg 70%
    19:00 +18°C° 0.1 mm 2 mps 742 mmHg 72%
    20:00 +18°C° 0.1 mm 2 mps 742 mmHg 74%
    21:00 +16°C° 0 mm 2 mps 742 mmHg 77%
    22:00 +15°C° 0 mm 2 mps 742 mmHg 81%
    23:00 +13°C° 0 mm 2 mps 742 mmHg 84%

    6 June, Saturday

    Time Temperature Precipitation Wind Pressure Humidity
    00:00 +13°C° 0 mm 2 mps 742 mmHg 86%
    01:00 +11°C° 0 mm 3 mps 742 mmHg 87%
    02:00 +11°C° 0 mm 3 mps 742 mmHg 88%
    03:00 +11°C° 0 mm 3 mps 741 mmHg 86%
    04:00 +12°C° 0 mm 3 mps 741 mmHg 85%
    05:00 +12°C° 0 mm 4 mps 740 mmHg 83%
    06:00 +14°C° 0 mm 4 mps 740 mmHg 76%
    07:00 +15°C° 0 mm 5 mps 739 mmHg 68%
    08:00 +17°C° 0 mm 6 mps 739 mmHg 61%
    09:00 +19°C° 0 mm 6 mps 738 mmHg 56%
    10:00 +20°C° 0 mm 6 mps 738 mmHg 52%
    11:00 +21°C° 0 mm 7 mps 737 mmHg 47%
    12:00 +19°C° 1.2 mm 6 mps 737 mmHg 61%
    13:00 +16°C° 1.2 mm 5 mps 737 mmHg 76%
    14:00 +14°C° 1.2 mm 5 mps 737 mmHg 90%
    15:00 +13°C° 1.7 mm 4 mps 738 mmHg 90%
    16:00 +13°C° 1.7 mm 4 mps 738 mmHg 89%
    17:00 +13°C° 1.7 mm 3 mps 738 mmHg 89%
    18:00 +12°C° 0.2 mm 3 mps 738 mmHg 87%
    19:00 +12°C° 0.2 mm 4 mps 739 mmHg 86%
    20:00 +12°C° 0.2 mm 4 mps 739 mmHg 85%
    21:00 +11°C° 0.2 mm 4 mps 739 mmHg 87%
    22:00 +9°C° 0.2 mm 5 mps 740 mmHg 88%
    23:00 +8°C° 0.2 mm 5 mps 740 mmHg 90%

    7 June, Sunday

    Time Temperature Precipitation Wind Pressure Humidity
    00:00 +8°C° 0.7 mm 5 mps 741 mmHg 90%
    01:00 +9°C° 0.7 mm 6 mps 741 mmHg 89%
    02:00 +9°C° 0.7 mm 7 mps 741 mmHg 88%
    03:00 +9°C° 0.3 mm 6 mps 742 mmHg 88%
    04:00 +9°C° 0.3 mm 6 mps 742 mmHg 88%
    05:00 +9°C° 0.3 mm 6 mps 743 mmHg 88%
    06:00 +10°C° 0.1 mm 6 mps 744 mmHg 82%
    07:00 +11°C° 0.1 mm 6 mps 744 mmHg 76%
    08:00 +13°C° 0.1 mm 6 mps 745 mmHg 70%
    09:00 +14°C° 0.1 mm 6 mps 746 mmHg 64%
    10:00 +15°C° 0.1 mm 7 mps 746 mmHg 57%
    11:00 +16°C° 0.1 mm 7 mps 747 mmHg 51%
    12:00 +16°C° 0 mm 7 mps 747 mmHg 48%
    13:00 +16°C° 0 mm 7 mps 748 mmHg 46%
    14:00 +17°C° 0 mm 7 mps 748 mmHg 44%
    15:00 +17°C° 0 mm 6 mps 748 mmHg 44%
    16:00 +16°C° 0 mm 6 mps 749 mmHg 44%
    17:00 +16°C° 0 mm 6 mps 749 mmHg 45%
    18:00 +15°C° 0 mm 5 mps 749 mmHg 49%
    19:00 +14°C° 0 mm 4 mps 749 mmHg 53%
    20:00 +13°C° 0 mm 3 mps 750 mmHg 58%
    21:00 +12°C° 0 mm 3 mps 750 mmHg 64%
    22:00 +11°C° 0 mm 3 mps 750 mmHg 70%
    23:00 +9°C° 0 mm 3 mps 751 mmHg 76%
    Show more